TimeEDT,TemperatureF,Dew PointF,Humidity,Sea Level PressureIn,VisibilityMPH,Wind Direction,Wind SpeedMPH,Gust SpeedMPH,PrecipitationIn,Events,Conditions,WindDirDegrees,DateUTC
12:15 AM,59.0,57.4,94,29.77,4.0,SSE,4.6,-,N/A,,Overcast,160,2013-10-16 04:15:00
12:36 AM,59.0,57.2,94,29.76,4.0,South,3.5,-,N/A,,Overcast,170,2013-10-16 04:36:00
12:55 AM,58.6,57.2,95,29.76,4.0,South,3.5,-,N/A,,Mostly Cloudy,180,2013-10-16 04:55:00
1:15 AM,58.6,57.2,95,29.75,4.0,SSE,3.5,-,N/A,,Mostly Cloudy,160,2013-10-16 05:15:00
1:36 AM,58.8,57.4,95,29.76,4.0,South,4.6,-,N/A,,Mostly Cloudy,180,2013-10-16 05:36:00
1:55 AM,59.5,57.7,94,29.76,7.0,SSW,9.2,16.1,N/A,,Mostly Cloudy,210,2013-10-16 05:55:00
2:15 AM,58.6,56.3,92,29.77,7.0,SW,5.8,-,N/A,,Scattered Clouds,230,2013-10-16 06:15:00
2:36 AM,58.1,55.8,92,29.77,10.0,WSW,4.6,-,N/A,,Mostly Cloudy,240,2013-10-16 06:36:00
2:55 AM,57.2,53.8,88,29.78,10.0,SW,8.1,16.1,N/A,,Mostly Cloudy,230,2013-10-16 06:55:00
3:15 AM,55.8,51.8,87,29.78,10.0,SW,6.9,-,N/A,,Mostly Cloudy,230,2013-10-16 07:15:00
3:36 AM,54.3,49.5,84,29.78,10.0,WSW,11.5,17.3,N/A,,Mostly Cloudy,240,2013-10-16 07:36:00
3:55 AM,52.2,46.8,82,29.78,10.0,WSW,6.9,-,N/A,,Scattered Clouds,240,2013-10-16 07:55:00
4:16 AM,51.1,46.6,85,29.78,10.0,SW,4.6,-,N/A,,Clear,220,2013-10-16 08:16:00
4:35 AM,50.5,46.4,86,29.78,10.0,SW,3.5,-,N/A,,Scattered Clouds,220,2013-10-16 08:35:00
4:55 AM,49.6,45.9,87,29.77,10.0,SSW,4.6,-,N/A,,Scattered Clouds,210,2013-10-16 08:55:00
5:16 AM,49.3,45.7,87,29.77,10.0,South,3.5,-,N/A,,Clear,190,2013-10-16 09:16:00
5:35 AM,48.6,45.5,89,29.77,10.0,South,4.6,-,N/A,,Scattered Clouds,180,2013-10-16 09:35:00
5:56 AM,47.8,44.8,89,29.77,10.0,Calm,Calm,-,N/A,,Mostly Cloudy,0,2013-10-16 09:56:00
6:16 AM,48.2,45.3,90,29.77,10.0,Calm,Calm,-,N/A,,Mostly Cloudy,0,2013-10-16 10:16:00
6:35 AM,47.3,44.8,91,29.77,10.0,SSW,3.5,-,N/A,,Scattered Clouds,210,2013-10-16 10:35:00
6:55 AM,47.3,45.0,92,29.77,10.0,South,3.5,-,N/A,,Clear,190,2013-10-16 10:55:00
7:16 AM,47.7,45.5,92,29.78,10.0,South,3.5,-,N/A,,Mostly Cloudy,190,2013-10-16 11:16:00
7:35 AM,48.2,45.5,90,29.77,10.0,South,3.5,-,N/A,,Overcast,170,2013-10-16 11:35:00
7:55 AM,48.6,45.5,89,29.77,10.0,South,4.6,-,N/A,,Overcast,180,2013-10-16 11:55:00
8:16 AM,48.9,45.7,89,29.77,10.0,South,3.5,-,N/A,,Overcast,190,2013-10-16 12:16:00
8:35 AM,49.1,46.0,89,29.78,10.0,South,5.8,-,N/A,,Overcast,170,2013-10-16 12:35:00
8:56 AM,49.5,46.4,89,29.78,10.0,South,5.8,-,N/A,,Overcast,170,2013-10-16 12:56:00
9:15 AM,50.0,46.6,88,29.78,10.0,South,6.9,-,N/A,,Overcast,180,2013-10-16 13:15:00
9:35 AM,50.2,46.8,88,29.78,10.0,South,5.8,-,N/A,,Overcast,190,2013-10-16 13:35:00
9:56 AM,50.2,46.8,88,29.78,7.0,South,8.1,-,N/A,Rain,Rain,180,2013-10-16 13:56:00
10:15 AM,50.4,47.3,89,29.78,10.0,SSW,10.4,-,N/A,,Light Drizzle,200,2013-10-16 14:15:00
10:35 AM,50.9,47.3,87,29.78,10.0,South,9.2,-,N/A,,Overcast,190,2013-10-16 14:35:00
10:56 AM,51.3,47.3,86,29.78,10.0,SSW,8.1,-,N/A,,Overcast,210,2013-10-16 14:56:00
11:15 AM,51.8,47.3,85,29.78,10.0,SSW,9.2,-,N/A,,Overcast,200,2013-10-16 15:15:00
11:36 AM,51.8,46.9,83,29.78,7.0,SSW,6.9,-,N/A,,Overcast,200,2013-10-16 15:36:00
11:55 AM,51.3,47.7,87,29.79,5.0,SSW,10.4,-,N/A,,Overcast,200,2013-10-16 15:55:00
12:15 PM,50.9,47.8,89,29.79,4.0,SSW,8.1,-,N/A,,Overcast,200,2013-10-16 16:15:00
12:36 PM,50.9,48.2,90,29.80,4.0,South,11.5,-,N/A,,Overcast,190,2013-10-16 16:36:00
12:55 PM,50.9,48.4,91,29.80,1.8,SSW,9.2,-,N/A,,Drizzle,200,2013-10-16 16:55:00
1:15 PM,50.9,48.6,92,29.80,2.0,SSW,9.2,-,N/A,,Light Drizzle,210,2013-10-16 17:15:00
1:36 PM,51.1,49.1,93,29.80,2.0,SSW,9.2,-,N/A,Rain,Rain,200,2013-10-16 17:36:00
1:55 PM,51.3,49.3,93,29.79,1.8,SSW,6.9,-,0.01,,Drizzle,200,2013-10-16 17:55:00
2:15 PM,51.4,49.5,93,29.79,2.0,SSW,4.6,-,N/A,,Drizzle,200,2013-10-16 18:15:00
2:36 PM,51.4,49.5,93,29.79,4.0,SSW,8.1,-,N/A,,Overcast,210,2013-10-16 18:36:00
2:55 PM,51.4,49.6,94,29.78,2.5,SW,5.8,-,0.01,,Heavy Drizzle,230,2013-10-16 18:55:00
3:15 PM,52.3,50.5,94,29.78,5.0,SSW,5.8,-,N/A,Rain,Light Rain,210,2013-10-16 19:15:00
3:36 PM,53.2,50.7,91,29.78,7.0,SW,6.9,-,N/A,,Overcast,230,2013-10-16 19:36:00
3:55 PM,54.7,51.3,88,29.78,10.0,SW,10.4,16.1,N/A,,Mostly Cloudy,230,2013-10-16 19:55:00
4:15 PM,55.2,50.0,83,29.78,10.0,WSW,11.5,17.3,N/A,,Overcast,240,2013-10-16 20:15:00
4:36 PM,54.9,49.1,81,29.78,10.0,WSW,10.4,-,N/A,,Overcast,250,2013-10-16 20:36:00
4:55 PM,54.5,48.4,80,29.79,10.0,WSW,9.2,20.7,N/A,,Overcast,240,2013-10-16 20:55:00
5:15 PM,54.5,48.2,79,29.79,10.0,WSW,12.7,19.6,N/A,,Overcast,250,2013-10-16 21:15:00
5:36 PM,54.5,48.4,80,29.80,10.0,WSW,9.2,16.1,N/A,,Overcast,250,2013-10-16 21:36:00
5:55 PM,54.5,48.6,80,29.80,10.0,WSW,6.9,-,N/A,,Overcast,240,2013-10-16 21:55:00
6:15 PM,54.3,48.4,80,29.81,10.0,SW,9.2,-,N/A,,Overcast,230,2013-10-16 22:15:00
6:36 PM,53.6,48.4,82,29.81,10.0,WSW,9.2,17.3,N/A,,Overcast,240,2013-10-16 22:36:00
6:55 PM,53.2,48.6,84,29.81,10.0,WSW,8.1,-,N/A,,Overcast,240,2013-10-16 22:55:00
7:15 PM,52.9,48.7,86,29.82,10.0,WSW,8.1,-,N/A,,Overcast,240,2013-10-16 23:15:00
7:36 PM,52.7,49.1,88,29.83,10.0,WSW,8.1,-,N/A,,Overcast,240,2013-10-16 23:36:00
7:55 PM,52.7,49.1,88,29.83,10.0,WSW,5.8,-,N/A,,Overcast,240,2013-10-16 23:55:00
8:15 PM,52.3,49.3,89,29.84,5.0,West,5.8,-,N/A,,Overcast,270,2013-10-17 00:15:00
8:36 PM,51.8,49.3,91,29.84,7.0,West,3.5,-,N/A,,Overcast,280,2013-10-17 00:36:00
8:55 PM,51.3,48.9,92,29.85,10.0,West,4.6,-,N/A,,Overcast,280,2013-10-17 00:55:00
9:36 PM,50.9,48.2,90,29.86,10.0,WNW,3.5,-,N/A,,Overcast,300,2013-10-17 01:36:00
9:55 PM,50.9,48.2,90,29.86,10.0,Calm,Calm,-,N/A,,Overcast,0,2013-10-17 01:55:00
10:15 PM,50.9,48.2,90,29.87,10.0,Calm,Calm,-,N/A,,Overcast,0,2013-10-17 02:15:00
10:36 PM,50.7,48.2,91,29.86,10.0,Calm,Calm,-,N/A,,Overcast,0,2013-10-17 02:36:00
10:55 PM,50.4,48.2,92,29.87,10.0,WSW,4.6,-,N/A,,Overcast,240,2013-10-17 02:55:00
11:15 PM,50.4,47.7,90,29.87,10.0,West,4.6,-,N/A,,Overcast,270,2013-10-17 03:15:00
11:36 PM,50.4,47.7,90,29.87,10.0,Calm,Calm,-,N/A,,Overcast,0,2013-10-17 03:36:00
11:55 PM,50.2,47.5,90,29.87,10.0,West,3.5,-,N/A,,Overcast,270,2013-10-17 03:55:00